DW8673 Jerrabomberra AU current weather conditions

sailwx.info

Wind from 238 at 4 knots gusting 10

Air temperature 26.7° C
Dewpoint -5.1° C

Last reported at 2014-Oct-26 07:43 UTC.
Time now 2014-Oct-26 08:30 UTC

Location: S 35°23' E 149°12'.
View on Google Maps.

See reports from other nearby stations

  
Tides and Currents Weather Stations Pressure Air Temp Water Temp Dewpoint Dewpoint Depression Visibility Wind Speed Wind Dir Waves Ship Positions
date/time (UTC)wind fromknots sea level pressurealtimeterstation pressurevisibilityair tempwater tempwave heightnotes
2014-Oct-26 07:43 238 4 gusting 10 26.7
2014-Oct-26 07:33 240 3 gusting 6 27.2
2014-Oct-26 07:13 270 4 gusting 5 26.7
2014-Oct-26 07:03 272 4 gusting 6 27.2
2014-Oct-26 06:43 302 2 gusting 7 28.3
2014-Oct-26 06:33 231 4 gusting 6 29.4
2014-Oct-26 06:13 309 3 gusting 12 30.6
2014-Oct-26 06:03 284 3 gusting 7 30.0
2014-Oct-26 05:43 258 2 gusting 5 29.4
2014-Oct-26 05:33 271 2 gusting 10 30.0
2014-Oct-26 05:13 260 4 gusting 7 31.7
2014-Oct-26 05:03 289 4 gusting 8 31.7
2014-Oct-26 04:43 313 3 gusting 7 31.1
2014-Oct-26 04:33 263 4 gusting 8 32.2
2014-Oct-26 04:13 310 4 gusting 6 30.6
2014-Oct-26 04:03 255 3 gusting 7 31.1
2014-Oct-26 03:43 304 4 gusting 6 32.2
2014-Oct-26 03:33 297 5 gusting 11 32.8
2014-Oct-26 03:13 255 4 gusting 8 33.3
2014-Oct-26 03:03 297 5 gusting 8 32.8
2014-Oct-26 02:43 290 2 gusting 6 33.3
2014-Oct-26 02:33 290 4 gusting 10 32.8
2014-Oct-26 02:13 306 4 gusting 6 33.3
2014-Oct-26 02:03 283 2 gusting 7 33.3
2014-Oct-26 01:43 201 3 gusting 6 31.7
2014-Oct-26 01:33 275 3 gusting 7 32.2
2014-Oct-26 01:13 321 3 gusting 6 32.2
2014-Oct-26 01:03 289 2 gusting 6 32.2
2014-Oct-26 00:43 274 2 gusting 4 31.7
2014-Oct-26 00:33 282 2 gusting 6 31.1
2014-Oct-26 00:13 045 1 gusting 5 30.0
2014-Oct-26 00:03 312 1 gusting 4 29.4
2014-Oct-25 23:43 331 1 gusting 5 27.8
2014-Oct-25 23:33 059 1 gusting 5 26.7
2014-Oct-25 23:13 056 1 gusting 4 25.0
2014-Oct-25 23:03 267 1 gusting 4 23.9
2014-Oct-25 22:43 330 1 gusting 4 24.4
2014-Oct-25 22:33 268 1 gusting 2 24.4
2014-Oct-25 22:13 351 1 gusting 2 22.8
2014-Oct-25 22:03 116 1 gusting 4 22.8
2014-Oct-25 21:43 106 0 gusting 1 22.2
2014-Oct-25 21:33 21.7
2014-Oct-25 21:13 248 0 gusting 0 20.0
2014-Oct-25 21:03 166 18.9
2014-Oct-25 20:43 242 17.2
2014-Oct-25 20:33 270 16.1
2014-Oct-25 20:13 246 13.9
2014-Oct-25 20:03 234 0 gusting 1 12.2
2014-Oct-25 19:43 112 11.1
2014-Oct-25 19:33 248 11.1
2014-Oct-25 19:13 112 11.1
2014-Oct-25 19:03 112 11.1
2014-Oct-25 18:43 180 11.7
2014-Oct-25 18:33 180 11.7
2014-Oct-25 18:13 135 12.2
2014-Oct-25 18:03 180 12.2
2014-Oct-25 17:43 135 12.2
2014-Oct-25 17:33 193 12.2
2014-Oct-25 17:13 239 12.8
2014-Oct-25 17:03 12.8
2014-Oct-25 16:43 180 13.3
2014-Oct-25 16:33 202 13.3
2014-Oct-25 16:13 225 13.3
2014-Oct-25 16:03 158 13.9
2014-Oct-25 15:43 248 13.9
2014-Oct-25 15:33 202 0 gusting 0 13.9
2014-Oct-25 15:13 225 14.4
2014-Oct-25 15:03 202 14.4
2014-Oct-25 14:43 270 14.4
2014-Oct-25 14:33 180 15.0
2014-Oct-25 14:13 202 15.0
2014-Oct-25 14:03 090 15.0
2014-Oct-25 13:43 202 15.6
2014-Oct-25 13:33 090 16.1
2014-Oct-25 13:13 135 16.1
2014-Oct-25 13:03 135 16.7
2014-Oct-25 12:43 158 17.2
2014-Oct-25 12:33 135 17.8
2014-Oct-25 12:13 150 0 gusting 4 18.3
2014-Oct-25 12:03 080 0 gusting 1 18.3
2014-Oct-25 11:43 042 0 gusting 1 18.9
2014-Oct-25 11:33 149 18.9
2014-Oct-25 11:13 045 0 gusting 1 19.4
2014-Oct-25 11:03 090 1 gusting 4 19.4
2014-Oct-25 10:43 094 0 gusting 2 19.4
2014-Oct-25 10:33 219 19.4
2014-Oct-25 10:13 248 19.4
2014-Oct-25 10:03 090 20.0
2014-Oct-25 09:43 248 0 gusting 0 20.0
2014-Oct-25 09:33 105 20.6
2014-Oct-25 09:13 221 20.6
2014-Oct-25 09:03 090 21.1
2014-Oct-25 08:43 090 22.2
2014-Oct-25 08:33 090 22.8
2014-Oct-25 08:13 068 25.6
2014-Oct-25 08:03 306 26.7
2014-Oct-25 07:43 268 0 gusting 0 29.4
2014-Oct-25 07:33 238 0 gusting 2 30.6
2014-Oct-25 07:13 248 0 gusting 1 28.3
2014-Oct-25 07:03 264 0 gusting 6 28.3
2014-Oct-25 06:43 300 0 gusting 4 29.4
2014-Oct-25 06:33 277 1 gusting 4 29.4
2014-Oct-25 06:13 272 1 gusting 5 27.2
2014-Oct-25 06:03 290 2 gusting 6 27.2
2014-Oct-25 05:43 261 4 gusting 6 27.8
2014-Oct-25 05:33 242 1 gusting 12 26.1
2014-Oct-25 05:13 272 1 gusting 6 25.0
2014-Oct-25 05:03 261 2 gusting 6 24.4
2014-Oct-25 04:43 164 6 gusting 11 26.7
2014-Oct-25 04:33 264 2 gusting 6 30.0
2014-Oct-25 04:13 280 2 gusting 6 33.3
2014-Oct-25 04:03 251 2 gusting 6 34.4
2014-Oct-25 03:43 313 2 gusting 7 35.0
2014-Oct-25 03:33 317 2 gusting 5 35.0
2014-Oct-25 03:13 335 1 gusting 5 35.0
2014-Oct-25 03:03 031 2 gusting 6 34.4
2014-Oct-25 02:43 314 2 gusting 6 34.4
2014-Oct-25 02:33 356 2 gusting 6 33.9
2014-Oct-25 02:13 355 3 gusting 6 33.9
2014-Oct-25 02:03 330 2 gusting 6 33.9
2014-Oct-25 01:43 343 2 gusting 6 33.3
2014-Oct-25 01:33 278 1 gusting 6 32.8
2014-Oct-25 01:13 260 2 gusting 6 32.8
2014-Oct-25 01:03 245 2 gusting 6 32.2
2014-Oct-25 00:43 296 1 gusting 5 32.2
2014-Oct-25 00:33 281 1 gusting 5 31.7
2014-Oct-25 00:13 305 1 gusting 2 30.6
2014-Oct-25 00:03 135 0 gusting 4 29.4
2014-Oct-24 23:43 041 1 gusting 4 28.3
2014-Oct-24 23:33 262 1 gusting 4 27.8
2014-Oct-24 23:13 126 1 gusting 2 26.7
2014-Oct-24 23:03 261 1 gusting 2 26.1
2014-Oct-24 22:43 254 24.4
2014-Oct-24 22:33 324 0 gusting 1 23.9
2014-Oct-24 22:13 270 0 gusting 1 22.2
2014-Oct-24 22:03 209 0 gusting 1 21.7
2014-Oct-24 21:43 338 0 gusting 1 20.6
2014-Oct-24 21:33 236 0 gusting 1 19.4
2014-Oct-24 21:13 270 1 gusting 1 18.9
2014-Oct-24 21:03 257 1 gusting 1 18.3
2014-Oct-24 20:43 315 0 gusting 1 16.7
2014-Oct-24 20:33 338 15.6
2014-Oct-24 20:13 255 0 gusting 0 13.3
2014-Oct-24 20:03 045 11.1
2014-Oct-24 19:43 258 10.0
2014-Oct-24 19:33 202 10.0
2014-Oct-24 19:13 090 10.0
2014-Oct-24 19:03 068 10.0
2014-Oct-24 18:43 090 10.0
2014-Oct-24 18:33 112 10.0
2014-Oct-24 18:13 202 10.6
2014-Oct-24 18:03 270 10.6
2014-Oct-24 17:43 090 10.6
2014-Oct-24 17:33 090 11.1
2014-Oct-24 17:13 090 11.1
2014-Oct-24 17:03 090 11.1
2014-Oct-24 16:43 112 11.1
2014-Oct-24 16:33 112 11.7
2014-Oct-24 16:13 090 11.7
2014-Oct-24 16:03 090 11.7
2014-Oct-24 15:43 315 12.2
2014-Oct-24 15:33 158 12.2
2014-Oct-24 15:13 112 12.8
2014-Oct-24 15:03 135 12.8
2014-Oct-24 14:13 135 0 gusting 0 13.3
2014-Oct-24 14:03 202 13.3
2014-Oct-24 13:43 112 0 gusting 0 13.9
2014-Oct-24 13:33 082 13.9
2014-Oct-24 13:13 158 14.4
2014-Oct-24 13:03 130 0 gusting 1 15.0
2014-Oct-24 12:43 282 15.6
2014-Oct-24 12:33 112 16.1
2014-Oct-24 12:13 343 0 gusting 1 16.7
2014-Oct-24 12:03 090 16.7
2014-Oct-24 11:43 248 17.2
2014-Oct-24 11:33 090 0 gusting 1 17.2
2014-Oct-24 11:13 202 17.8
2014-Oct-24 11:03 112 18.3
2014-Oct-24 10:43 112 18.9
2014-Oct-24 10:33 112 19.4
2014-Oct-24 10:13 135 20.0
2014-Oct-24 10:03 135 20.6
2014-Oct-24 09:43 065 0 gusting 0 21.1
2014-Oct-24 09:33 202 21.1
2014-Oct-24 09:13 270 21.7
2014-Oct-24 09:03 270 21.7
2014-Oct-24 08:43 135 22.8
2014-Oct-24 08:33 090 22.8
2014-Oct-24 08:13 270 23.3
2014-Oct-24 08:03 097 23.3